Time,TemperatureF,DewpointF,PressureIn,WindDirection,WindDirectionDegrees,WindSpeedMPH,WindSpeedGustMPH,Humidity,HourlyPrecipIn,Conditions,Clouds,dailyrainin,SoftwareType,DateUTC
2013-07-27 00:02:00,75.0,57.0,29.62,North,-999,0.0,0.0,54,0.00,,,-99.99,,2013-07-27 07:02:00,
2013-07-27 00:22:00,75.0,56.0,29.62,North,-999,0.0,0.0,52,0.00,,,-99.99,,2013-07-27 07:22:00,
2013-07-27 00:33:00,75.0,56.0,29.62,North,-999,0.0,0.0,52,0.00,,,-99.99,,2013-07-27 07:33:00,
2013-07-27 01:01:00,74.0,56.0,29.62,North,-999,0.0,0.0,53,0.00,,,-99.99,,2013-07-27 08:01:00,
2013-07-27 01:32:00,73.0,55.0,29.62,North,-999,0.0,0.0,54,0.00,,,-99.99,,2013-07-27 08:32:00,
2013-07-27 01:43:00,73.0,56.0,29.62,North,0,0.0,1.0,56,0.00,,,-99.99,,2013-07-27 08:43:00,
2013-07-27 01:53:00,73.0,57.0,29.61,North,-999,0.0,0.0,57,0.00,,,-99.99,,2013-07-27 08:53:00,
2013-07-27 02:44:00,72.0,57.0,29.60,North,0,0.0,1.0,59,0.00,,,-99.99,,2013-07-27 09:44:00,
2013-07-27 02:52:00,71.0,57.0,29.60,North,-999,0.0,0.0,61,0.00,,,-99.99,,2013-07-27 09:52:00,
2013-07-27 03:02:00,71.0,57.0,29.60,North,-999,0.0,0.0,61,0.00,,,-99.99,,2013-07-27 10:02:00,
2013-07-27 03:12:00,71.0,57.0,29.60,North,-999,0.0,0.0,61,0.00,,,-99.99,,2013-07-27 10:12:00,
2013-07-27 03:22:00,71.0,58.0,29.59,North,-999,0.0,0.0,63,0.00,,,-99.99,,2013-07-27 10:22:00,
2013-07-27 03:32:00,71.0,58.0,29.59,North,-999,0.0,0.0,63,0.00,,,-99.99,,2013-07-27 10:32:00,
2013-07-27 03:43:00,70.0,57.0,29.59,North,-999,0.0,0.0,64,0.00,,,-99.99,,2013-07-27 10:43:00,
2013-07-27 03:52:00,70.0,58.0,29.59,North,-999,0.0,0.0,65,0.00,,,-99.99,,2013-07-27 10:52:00,
2013-07-27 04:01:00,70.0,58.0,29.59,North,-999,0.0,0.0,65,0.00,,,-99.99,,2013-07-27 11:01:00,
2013-07-27 04:22:00,69.0,57.0,29.59,North,-999,0.0,0.0,66,0.00,,,-99.99,,2013-07-27 11:22:00,
2013-07-27 04:32:00,69.0,57.0,29.59,North,-999,0.0,0.0,66,0.00,,,-99.99,,2013-07-27 11:32:00,
2013-07-27 04:52:00,69.0,57.0,29.58,North,-999,0.0,0.0,66,0.00,,,-99.99,,2013-07-27 11:52:00,
2013-07-27 05:22:00,69.0,59.0,29.58,North,-999,0.0,0.0,70,0.00,,,-99.99,,2013-07-27 12:22:00,
2013-07-27 05:33:00,69.0,59.0,29.58,North,-999,0.0,0.0,70,0.00,,,-99.99,,2013-07-27 12:33:00,
2013-07-27 05:43:00,69.0,59.0,29.59,North,-999,0.0,0.0,70,0.00,,,-99.99,,2013-07-27 12:43:00,
2013-07-27 05:52:00,69.0,59.0,29.59,North,-999,0.0,0.0,70,0.00,,,-99.99,,2013-07-27 12:52:00,
2013-07-27 06:32:00,68.0,58.0,29.60,North,-999,0.0,0.0,70,0.00,,,-99.99,,2013-07-27 13:32:00,
2013-07-27 06:44:00,69.0,58.0,29.61,North,-999,0.0,0.0,68,0.00,,,-99.99,,2013-07-27 13:44:00,
2013-07-27 06:53:00,70.0,58.0,29.61,North,-999,0.0,0.0,65,0.00,,,-99.99,,2013-07-27 13:53:00,
2013-07-27 07:12:00,70.0,58.0,29.61,North,-999,0.0,0.0,65,0.00,,,-99.99,,2013-07-27 14:12:00,
2013-07-27 07:43:00,72.0,59.0,29.61,North,-999,0.0,0.0,64,0.00,,,-99.99,,2013-07-27 14:43:00,
2013-07-27 07:54:00,72.0,59.0,29.61,North,-999,0.0,0.0,63,0.00,,,-99.99,,2013-07-27 14:54:00,
2013-07-27 08:02:00,72.0,59.0,29.61,North,-999,0.0,0.0,63,0.00,,,-99.99,,2013-07-27 15:02:00,
2013-07-27 08:33:00,74.0,60.0,29.62,North,-999,0.0,0.0,61,0.00,,,-99.99,,2013-07-27 15:33:00,
2013-07-27 08:53:00,75.0,60.0,29.63,North,-999,0.0,0.0,59,0.00,,,-99.99,,2013-07-27 15:53:00,
2013-07-27 09:02:00,75.0,60.0,29.63,North,-999,0.0,0.0,59,0.00,,,-99.99,,2013-07-27 16:02:00,
2013-07-27 09:12:00,75.0,60.0,29.63,North,-999,0.0,0.0,59,0.00,,,-99.99,,2013-07-27 16:12:00,
2013-07-27 09:22:00,75.0,59.0,29.63,North,0,0.0,1.0,58,0.00,,,-99.99,,2013-07-27 16:22:00,
2013-07-27 09:33:00,75.0,59.0,29.63,North,0,0.0,1.0,58,0.00,,,-99.99,,2013-07-27 16:33:00,
2013-07-27 09:43:00,76.0,59.0,29.62,North,0,0.0,1.0,56,0.00,,,-99.99,,2013-07-27 16:43:00,
2013-07-27 09:54:00,76.0,59.0,29.63,North,-999,0.0,0.0,55,0.00,,,-99.99,,2013-07-27 16:54:00,
2013-07-27 10:02:00,76.0,59.0,29.63,North,-999,0.0,0.0,55,0.00,,,-99.99,,2013-07-27 17:02:00,
2013-07-27 10:12:00,76.0,59.0,29.63,North,-999,0.0,0.0,55,0.00,,,-99.99,,2013-07-27 17:12:00,
2013-07-27 10:32:00,77.0,59.0,29.63,North,-999,0.0,0.0,54,0.00,,,-99.99,,2013-07-27 17:32:00,
2013-07-27 10:53:00,77.0,59.0,29.62,North,0,0.0,1.0,54,0.00,,,-99.99,,2013-07-27 17:53:00,
2013-07-27 11:12:00,77.0,59.0,29.61,North,0,0.0,1.0,53,0.00,,,-99.99,,2013-07-27 18:12:00,
2013-07-27 11:22:00,77.0,59.0,29.61,North,0,0.0,1.0,53,0.00,,,-99.99,,2013-07-27 18:22:00,
2013-07-27 11:32:00,79.0,59.0,29.59,North,0,0.0,1.0,51,0.00,,,-99.99,,2013-07-27 18:32:00,
2013-07-27 11:43:00,78.0,59.0,29.60,North,0,0.0,3.0,53,0.00,,,-99.99,,2013-07-27 18:43:00,
2013-07-27 11:53:00,78.0,59.0,29.60,North,0,0.0,3.0,53,0.00,,,-99.99,,2013-07-27 18:53:00,
2013-07-27 12:12:00,79.0,59.0,29.59,North,0,0.0,1.0,51,0.00,,,-99.99,,2013-07-27 19:12:00,
2013-07-27 12:22:00,79.0,59.0,29.59,North,0,0.0,1.0,51,0.00,,,-99.99,,2013-07-27 19:22:00,
2013-07-27 12:43:00,80.0,59.0,29.59,North,0,0.0,3.0,49,0.00,,,-99.99,,2013-07-27 19:43:00,
2013-07-27 12:53:00,80.0,59.0,29.59,North,-999,0.0,0.0,49,0.00,,,-99.99,,2013-07-27 19:53:00,
2013-07-27 13:02:00,80.0,59.0,29.59,North,-999,0.0,0.0,49,0.00,,,-99.99,,2013-07-27 20:02:00,
2013-07-27 13:12:00,80.0,59.0,29.59,North,-999,0.0,0.0,49,0.00,,,-99.99,,2013-07-27 20:12:00,
2013-07-27 13:32:00,78.0,58.0,29.58,North,-999,0.0,0.0,51,0.00,,,-99.99,,2013-07-27 20:32:00,
2013-07-27 13:52:00,79.0,58.0,29.57,North,0,0.0,5.0,49,0.00,,,-99.99,,2013-07-27 20:52:00,
2013-07-27 14:02:00,80.0,58.0,29.57,SW,230,2.0,2.0,47,0.00,,,-99.99,,2013-07-27 21:02:00,
2013-07-27 14:12:00,80.0,58.0,29.57,SW,230,2.0,2.0,47,0.00,,,-99.99,,2013-07-27 21:12:00,
2013-07-27 14:22:00,79.0,58.0,29.56,North,-999,0.0,0.0,49,0.00,,,-99.99,,2013-07-27 21:22:00,
2013-07-27 14:33:00,79.0,58.0,29.56,North,-999,0.0,0.0,49,0.00,,,-99.99,,2013-07-27 21:33:00,
2013-07-27 14:52:00,82.0,58.0,29.55,SW,220,2.0,5.0,44,0.00,,,-99.99,,2013-07-27 21:52:00,
2013-07-27 15:02:00,82.0,58.0,29.55,SW,220,2.0,5.0,44,0.00,,,-99.99,,2013-07-27 22:02:00,
2013-07-27 15:12:00,82.0,58.0,29.55,SW,220,2.0,5.0,44,0.00,,,-99.99,,2013-07-27 22:12:00,
2013-07-27 15:22:00,81.0,58.0,29.53,North,-999,0.0,0.0,46,0.00,,,-99.99,,2013-07-27 22:22:00,
2013-07-27 15:32:00,81.0,58.0,29.53,North,-999,0.0,0.0,46,0.00,,,-99.99,,2013-07-27 22:32:00,
2013-07-27 15:53:00,81.0,58.0,29.53,SSW,210,3.0,6.0,46,0.00,,,-99.99,,2013-07-27 22:53:00,
2013-07-27 16:02:00,82.0,59.0,29.52,SSW,210,1.0,6.0,45,0.00,,,-99.99,,2013-07-27 23:02:00,
2013-07-27 16:12:00,82.0,59.0,29.52,SSW,210,1.0,6.0,45,0.00,,,-99.99,,2013-07-27 23:12:00,
2013-07-27 16:22:00,82.0,59.0,29.51,SSW,210,4.0,4.0,45,0.00,,,-99.99,,2013-07-27 23:22:00,
2013-07-27 16:32:00,82.0,59.0,29.51,SSW,210,4.0,4.0,45,0.00,,,-99.99,,2013-07-27 23:32:00,
2013-07-27 16:53:00,80.0,58.0,29.51,SSW,210,3.0,6.0,47,0.00,,,-99.99,,2013-07-27 23:53:00,
2013-07-27 17:02:00,79.0,58.0,29.51,SSW,210,1.0,4.0,49,0.00,,,-99.99,,2013-07-28 00:02:00,
2013-07-27 17:12:00,79.0,58.0,29.51,SSW,210,1.0,4.0,49,0.00,,,-99.99,,2013-07-28 00:12:00,
2013-07-27 17:32:00,79.0,58.0,29.50,North,-999,0.0,0.0,48,0.00,,,-99.99,,2013-07-28 00:32:00,
2013-07-27 17:53:00,79.0,57.0,29.49,North,0,0.0,5.0,47,0.00,,,-99.99,,2013-07-28 00:53:00,
2013-07-27 18:02:00,79.0,57.0,29.49,North,0,0.0,5.0,47,0.00,,,-99.99,,2013-07-28 01:02:00,
2013-07-27 18:12:00,78.0,57.0,29.48,North,0,0.0,3.0,48,0.00,,,-99.99,,2013-07-28 01:12:00,
2013-07-27 18:22:00,78.0,57.0,29.48,North,0,0.0,3.0,48,0.00,,,-99.99,,2013-07-28 01:22:00,
2013-07-27 18:32:00,78.0,57.0,29.48,North,0,0.0,3.0,48,0.00,,,-99.99,,2013-07-28 01:32:00,
2013-07-27 18:43:00,76.0,57.0,29.48,West,260,1.0,5.0,52,0.00,,,-99.99,,2013-07-28 01:43:00,
2013-07-27 18:53:00,76.0,57.0,29.48,West,260,1.0,5.0,52,0.00,,,-99.99,,2013-07-28 01:53:00,
2013-07-27 19:02:00,75.0,57.0,29.48,West,270,1.0,5.0,53,0.00,,,-99.99,,2013-07-28 02:02:00,
2013-07-27 19:12:00,75.0,57.0,29.48,West,270,1.0,5.0,53,0.00,,,-99.99,,2013-07-28 02:12:00,
2013-07-27 19:22:00,74.0,57.0,29.47,WNW,290,2.0,3.0,56,0.00,,,-99.99,,2013-07-28 02:22:00,
2013-07-27 19:32:00,74.0,57.0,29.47,WNW,290,2.0,3.0,56,0.00,,,-99.99,,2013-07-28 02:32:00,
2013-07-27 19:53:00,73.0,57.0,29.47,WNW,300,2.0,5.0,57,0.00,,,-99.99,,2013-07-28 02:53:00,
2013-07-27 20:00:00,71.0,56.0,29.48,North,-999,0.0,0.0,60,0.00,,,-99.99,,2013-07-28 03:00:00,
2013-07-27 20:12:00,73.0,57.0,29.48,WNW,300,3.0,4.0,57,0.00,,,-99.99,,2013-07-28 03:12:00,
2013-07-27 20:22:00,72.0,56.0,29.48,North,0,0.0,4.0,58,0.00,,,-99.99,,2013-07-28 03:22:00,
2013-07-27 20:32:00,71.0,56.0,29.48,North,-999,0.0,0.0,60,0.00,,,-99.99,,2013-07-28 03:32:00,
2013-07-27 20:42:00,71.0,56.0,29.48,North,-999,0.0,0.0,60,0.00,,,-99.99,,2013-07-28 03:42:00,
2013-07-27 20:53:00,71.0,56.0,29.48,North,-999,0.0,0.0,60,0.00,,,-99.99,,2013-07-28 03:53:00,
2013-07-27 21:12:00,70.0,56.0,29.48,North,0,0.0,1.0,62,0.00,,,-99.99,,2013-07-28 04:12:00,
2013-07-27 21:22:00,70.0,56.0,29.49,North,0,0.0,1.0,62,0.00,,,-99.99,,2013-07-28 04:22:00,
2013-07-27 21:32:00,70.0,56.0,29.49,North,0,0.0,1.0,62,0.00,,,-99.99,,2013-07-28 04:32:00,
2013-07-27 21:43:00,70.0,56.0,29.49,North,0,0.0,1.0,62,0.00,,,-99.99,,2013-07-28 04:43:00,
2013-07-27 21:53:00,70.0,56.0,29.49,North,0,0.0,1.0,62,0.00,,,-99.99,,2013-07-28 04:53:00,
2013-07-27 22:12:00,70.0,56.0,29.50,North,-999,0.0,0.0,62,0.00,,,-99.99,,2013-07-28 05:12:00,
2013-07-27 22:22:00,70.0,56.0,29.50,North,-999,0.0,0.0,62,0.00,,,-99.99,,2013-07-28 05:22:00,
2013-07-27 22:32:00,70.0,57.0,29.51,North,-999,0.0,0.0,63,0.00,,,-99.99,,2013-07-28 05:32:00,
2013-07-27 22:43:00,70.0,57.0,29.51,North,-999,0.0,0.0,64,0.00,,,-99.99,,2013-07-28 05:43:00,
2013-07-27 22:53:00,69.0,56.0,29.51,North,-999,0.0,0.0,64,0.00,,,-99.99,,2013-07-28 05:53:00,
2013-07-27 23:02:00,69.0,56.0,29.51,North,-999,0.0,0.0,64,0.00,,,-99.99,,2013-07-28 06:02:00,
2013-07-27 23:12:00,69.0,56.0,29.51,North,-999,0.0,0.0,64,0.00,,,-99.99,,2013-07-28 06:12:00,
2013-07-27 23:22:00,69.0,56.0,29.51,North,-999,0.0,0.0,64,0.00,,,-99.99,,2013-07-28 06:22:00,
2013-07-27 23:32:00,70.0,57.0,29.51,North,-999,0.0,0.0,64,0.00,,,-99.99,,2013-07-28 06:32:00,
2013-07-27 23:52:00,70.0,57.0,29.50,North,-999,0.0,0.0,64,0.00,,,-99.99,,2013-07-28 06:52:00,